QPF
0.01 0.04 0.05 0.04 0.02 0.01 0.01 0.00 0.00 0.00 0.00 0.00 0.00 0.00 0.00 0.00 0.00 0.00 0.00 0.01 0.01 0.01 0.01 0.01 0.01 0.02 0.03 0.03 0.03 0.03 0.03 0.03 0.04 0.04 0.05 0.05 0.05 0.06 0.05 0.06 0.05 0.03 0.06
0.01 0.02 0.02 0.04 0.03 0.02 0.01 0.00 0.00 0.00 0.00 0.00 0.00 0.00 0.00 0.00 0.00 0.00 0.00 0.00 0.01 0.01 0.01 0.01 0.01 0.02 0.02 0.02 0.03 0.03 0.04 0.03 0.03 0.03 0.05 0.05 0.05 0.05 0.05 0.05 0.06 0.05 0.06
0.01 0.01 0.01 0.04 0.05 0.02 0.01 0.00 0.00 0.00 0.00 0.00 0.00 0.00 0.00 0.00 0.00 0.00 0.01 0.01 0.01 0.01 0.01 0.01 0.01 0.02 0.02 0.02 0.03 0.03 0.04 0.04 0.03 0.03 0.05 0.04 0.06 0.07 0.07 0.05 0.05 0.07 0.07
0.00 0.01 0.01 0.02 0.06 0.02 0.01 0.00 0.00 0.00 0.00 0.00 0.00 0.00 0.00 0.00 0.01 0.01 0.01 0.01 0.01 0.01 0.01 0.01 0.01 0.02 0.02 0.03 0.03 0.03 0.04 0.04 0.04 0.04 0.03 0.04 0.06 0.10 0.09 0.06 0.05 0.05 0.05
0.01 0.01 0.01 0.01 0.04 0.02 0.01 0.00 0.00 0.00 0.00 0.00 0.00 0.00 0.00 0.00 0.00 0.01 0.01 0.01 0.01 0.00 0.01 0.01 0.01 0.02 0.02 0.03 0.03 0.03 0.04 0.05 0.05 0.04 0.03 0.04 0.09 0.10 0.07 0.05 0.04 0.04 0.04
0.01 0.01 0.01 0.01 0.02 0.02 0.02 0.01 0.01 0.00 0.00 0.00 0.00 0.00 0.00 0.00 0.00 0.00 0.01 0.01 0.01 0.01 0.01 0.01 0.01 0.01 0.02 0.03 0.03 0.03 0.04 0.05 0.06 0.04 0.05 0.04 0.06 0.08 0.07 0.06 0.05 0.04 0.04
0.01 0.02 0.02 0.02 0.01 0.01 0.01 0.02 0.02 0.01 0.01 0.01 0.01 0.00 0.00 0.00 0.00 0.00 0.01 0.01 0.01 0.01 0.00 0.00 0.01 0.01 0.01 0.02 0.02 0.03 0.03 0.05 0.06 0.06 0.05 0.04 0.03 0.05 0.07 0.07 0.06 0.06 0.05
0.02 0.03 0.02 0.02 0.02 0.02 0.02 0.02 0.03 0.02 0.02 0.02 0.02 0.00 0.00 0.00 0.01 0.01 0.01 0.01 0.01 0.01 0.01 0.01 0.01 0.01 0.01 0.01 0.02 0.02 0.03 0.03 0.04 0.05 0.05 0.05 0.04 0.06 0.08 0.09 0.09 0.09 0.07
0.02 0.03 0.03 0.03 0.03 0.04 0.03 0.03 0.04 0.04 0.04 0.03 0.02 0.01 0.01 0.01 0.01 0.01 0.01 0.01 0.01 0.02 0.02 0.02 0.01 0.02 0.02 0.01 0.02 0.03 0.02 0.03 0.03 0.04 0.05 0.06 0.06 0.07 0.10 0.11 0.09 0.09 0.08
0.04 0.05 0.05 0.04 0.03 0.05 0.05 0.04 0.04 0.05 0.04 0.03 0.02 0.01 0.02 0.02 0.02 0.02 0.01 0.02 0.02 0.03 0.03 0.04 0.03 0.03 0.03 0.03 0.03 0.04 0.04 0.03 0.02 0.04 0.07 0.07 0.09 0.12 0.12 0.11 0.09 0.09 0.09
0.06 0.12 0.08 0.07 0.04 0.04 0.05 0.04 0.05 0.05 0.04 0.04 0.03 0.02 0.02 0.02 0.02 0.02 0.02 0.03 0.03 0.04 0.04 0.05 0.04 0.05 0.05 0.04 0.04 0.05 0.04 0.02 0.01 0.03 0.06 0.07 0.12 0.14 0.14 0.15 0.12 0.10 0.09
0.04 0.09 0.09 0.11 0.09 0.06 0.06 0.05 0.05 0.05 0.04 0.03 0.04 0.04 0.04 0.03 0.02 0.02 0.02 0.03 0.03 0.04 0.04 0.06 0.06 0.06 0.04 0.03 0.02 0.04 0.03 0.01 0.02 0.02 0.03 0.06 0.10 0.12 0.14 0.14 0.13 0.10 0.07
0.03 0.04 0.05 0.07 0.09 0.08 0.08 0.06 0.06 0.05 0.05 0.04 0.04 0.04 0.04 0.04 0.03 0.03 0.02 0.02 0.03 0.04 0.04 0.04 0.05 0.03 0.02 0.02 0.02 0.04 0.03 0.02 0.03 0.03 0.04 0.08 0.10 0.10 0.11 0.12 0.11 0.09 0.08
0.02 0.03 0.03 0.05 0.08 0.11 0.11 0.08 0.06 0.04 0.05 0.05 0.05 0.04 0.04 0.05 0.04 0.04 0.04 0.03 0.04 0.04 0.03 0.04 0.04 0.03 0.02 0.02 0.02 0.03 0.03 0.03 0.03 0.05 0.06 0.07 0.10 0.12 0.11 0.10 0.09 0.08 0.07
0.04 0.04 0.04 0.04 0.06 0.10 0.13 0.17 0.12 0.08 0.08 0.07 0.06 0.06 0.05 0.04 0.04 0.04 0.05 0.08 0.08 0.08 0.07 0.05 0.04 0.04 0.04 0.03 0.02 0.02 0.02 0.02 0.03 0.05 0.05 0.06 0.09 0.14 0.12 0.09 0.09 0.08 0.07
0.07 0.05 0.03 0.03 0.04 0.06 0.10 0.20 0.25 0.17 0.10 0.09 0.07 0.08 0.08 0.07 0.07 0.06 0.07 0.10 0.13 0.14 0.12 0.08 0.05 0.04 0.04 0.03 0.02 0.02 0.02 0.02 0.03 0.05 0.05 0.05 0.06 0.08 0.09 0.09 0.09 0.10 0.09
0.04 0.03 0.03 0.04 0.03 0.04 0.08 0.14 0.19 0.24 0.19 0.14 0.10 0.09 0.09 0.11 0.14 0.20 0.24 0.21 0.15 0.12 0.11 0.10 0.07 0.05 0.04 0.03 0.02 0.01 0.02 0.02 0.04 0.05 0.04 0.03 0.04 0.05 0.06 0.07 0.08 0.08 0.08
0.04 0.03 0.03 0.03 0.03 0.04 0.07 0.14 0.12 0.13 0.19 0.23 0.18 0.14 0.12 0.13 0.14 0.18 0.25 0.26 0.19 0.14 0.12 0.10 0.07 0.06 0.05 0.04 0.03 0.02 0.02 0.03 0.04 0.04 0.03 0.03 0.03 0.03 0.04 0.05 0.05 0.05 0.06
0.05 0.05 0.04 0.03 0.03 0.03 0.04 0.07 0.09 0.08 0.10 0.15 0.19 0.20 0.19 0.19 0.19 0.16 0.15 0.18 0.14 0.12 0.10 0.09 0.07 0.06 0.06 0.04 0.03 0.03 0.03 0.04 0.04 0.04 0.03 0.03 0.03 0.03 0.03 0.03 0.04 0.05 0.06
0.10 0.13 0.08 0.03 0.03 0.03 0.03 0.04 0.04 0.05 0.05 0.07 0.11 0.15 0.17 0.16 0.16 0.15 0.13 0.14 0.12 0.11 0.09 0.08 0.06 0.06 0.06 0.05 0.05 0.04 0.03 0.03 0.04 0.04 0.05 0.05 0.04 0.03 0.03 0.03 0.04 0.04 0.05
0.06 0.06 0.04 0.04 0.04 0.04 0.03 0.04 0.04 0.05 0.04 0.04 0.06 0.08 0.12 0.16 0.16 0.15 0.11 0.13 0.13 0.11 0.09 0.08 0.08 0.07 0.07 0.08 0.08 0.07 0.05 0.04 0.04 0.05 0.07 0.07 0.06 0.05 0.06 0.05 0.05 0.05 0.04
0.03 0.04 0.03 0.03 0.04 0.04 0.04 0.03 0.03 0.04 0.05 0.06 0.05 0.06 0.07 0.09 0.11 0.12 0.11 0.10 0.11 0.11 0.10 0.09 0.07 0.07 0.06 0.08 0.07 0.07 0.06 0.05 0.03 0.03 0.06 0.08 0.07 0.04 0.04 0.04 0.04 0.03 0.02
0.02 0.03 0.03 0.03 0.03 0.03 0.04 0.05 0.06 0.07 0.06 0.06 0.06 0.06 0.05 0.07 0.08 0.08 0.10 0.11 0.12 0.12 0.10 0.09 0.07 0.06 0.05 0.07 0.07 0.07 0.06 0.04 0.03 0.03 0.03 0.04 0.04 0.04 0.03 0.03 0.03 0.03 0.02
0.02 0.02 0.02 0.03 0.04 0.04 0.05 0.06 0.07 0.07 0.06 0.04 0.04 0.04 0.04 0.04 0.06 0.06 0.06 0.09 0.11 0.10 0.09 0.08 0.09 0.09 0.07 0.07 0.07 0.06 0.06 0.05 0.05 0.03 0.02 0.04 0.04 0.03 0.03 0.03 0.02 0.02 0.02
0.04 0.06 0.04 0.03 0.04 0.05 0.07 0.07 0.07 0.06 0.05 0.05 0.04 0.04 0.04 0.04 0.04 0.05 0.04 0.05 0.06 0.07 0.08 0.08 0.08 0.10 0.09 0.08 0.08 0.08 0.08 0.09 0.08 0.07 0.06 0.05 0.04 0.04 0.04 0.04 0.03 0.03 0.02
0.05 0.06 0.05 0.04 0.03 0.04 0.05 0.06 0.07 0.06 0.05 0.05 0.05 0.05 0.05 0.04 0.04 0.04 0.04 0.04 0.04 0.05 0.08 0.08 0.08 0.09 0.10 0.09 0.08 0.07 0.07 0.07 0.06 0.08 0.09 0.08 0.07 0.06 0.05 0.05 0.05 0.04 0.04
MSLP
1009.82 1009.03 1008.47 1008.22 1008.24 1008.46 1008.75 1009.02 1009.17 1009.20 1009.13 1009.04 1009.01 1009.12 1009.38 1009.77 1010.26 1010.76 1011.22 1011.60 1011.89 1012.12 1012.34 1012.57 1012.84 1013.16 1013.49 1013.81 1014.10 1014.34 1014.54 1014.72 1014.91 1015.14 1015.41 1015.70 1015.99 1016.24 1016.43 1016.54 1016.57 1016.57 1016.55
1009.80 1009.06 1008.55 1008.33 1008.38 1008.60 1008.90 1009.16 1009.33 1009.37 1009.34 1009.30 1009.33 1009.47 1009.75 1010.15 1010.60 1011.06 1011.46 1011.78 1012.03 1012.23 1012.43 1012.65 1012.92 1013.23 1013.55 1013.85 1014.12 1014.33 1014.50 1014.67 1014.85 1015.08 1015.35 1015.65 1015.96 1016.22 1016.43 1016.56 1016.62 1016.64 1016.66
1009.68 1009.00 1008.56 1008.40 1008.48 1008.72 1009.03 1009.29 1009.46 1009.53 1009.53 1009.52 1009.58 1009.74 1010.02 1010.39 1010.80 1011.19 1011.53 1011.80 1012.01 1012.19 1012.38 1012.60 1012.87 1013.18 1013.50 1013.79 1014.03 1014.23 1014.39 1014.55 1014.73 1014.96 1015.24 1015.55 1015.86 1016.13 1016.35 1016.50 1016.59 1016.65 1016.71
1009.52 1008.94 1008.58 1008.48 1008.61 1008.88 1009.19 1009.45 1009.62 1009.69 1009.70 1009.70 1009.76 1009.92 1010.17 1010.49 1010.85 1011.18 1011.46 1011.68 1011.86 1012.03 1012.23 1012.46 1012.75 1013.06 1013.38 1013.67 1013.90 1014.09 1014.26 1014.42 1014.61 1014.84 1015.12 1015.43 1015.74 1016.01 1016.23 1016.39 1016.51 1016.61 1016.74
1009.43 1008.95 1008.69 1008.68 1008.86 1009.14 1009.44 1009.68 1009.82 1009.87 1009.85 1009.84 1009.88 1010.01 1010.22 1010.49 1010.79 1011.07 1011.30 1011.49 1011.67 1011.84 1012.06 1012.32 1012.62 1012.95 1013.27 1013.56 1013.80 1013.99 1014.15 1014.32 1014.52 1014.76 1015.04 1015.34 1015.63 1015.89 1016.10 1016.27 1016.41 1016.56 1016.75
1009.48 1009.12 1008.97 1009.03 1009.24 1009.53 1009.80 1009.99 1010.07 1010.07 1010.01 1009.96 1009.96 1010.05 1010.21 1010.43 1010.68 1010.91 1011.12 1011.30 1011.48 1011.68 1011.93 1012.22 1012.56 1012.90 1013.23 1013.52 1013.76 1013.95 1014.12 1014.29 1014.50 1014.74 1015.01 1015.30 1015.57 1015.81 1016.01 1016.17 1016.34 1016.52 1016.77
1009.70 1009.46 1009.40 1009.53 1009.76 1010.01 1010.22 1010.34 1010.34 1010.26 1010.14 1010.04 1010.00 1010.05 1010.17 1010.35 1010.56 1010.77 1010.97 1011.16 1011.36 1011.60 1011.89 1012.22 1012.58 1012.94 1013.27 1013.56 1013.79 1013.98 1014.14 1014.32 1014.52 1014.76 1015.03 1015.30 1015.56 1015.77 1015.95 1016.12 1016.29 1016.50 1016.78
1010.06 1009.92 1009.95 1010.11 1010.33 1010.53 1010.65 1010.66 1010.57 1010.41 1010.22 1010.08 1010.01 1010.02 1010.13 1010.28 1010.47 1010.67 1010.87 1011.08 1011.31 1011.59 1011.91 1012.28 1012.66 1013.04 1013.38 1013.65 1013.87 1014.04 1014.20 1014.36 1014.56 1014.80 1015.06 1015.32 1015.56 1015.76 1015.93 1016.09 1016.26 1016.48 1016.78
1010.48 1010.43 1010.52 1010.68 1010.86 1010.98 1011.00 1010.91 1010.72 1010.48 1010.24 1010.07 1009.98 1009.99 1010.08 1010.23 1010.41 1010.60 1010.80 1011.02 1011.28 1011.59 1011.95 1012.35 1012.76 1013.14 1013.47 1013.74 1013.93 1014.09 1014.22 1014.38 1014.56 1014.79 1015.04 1015.30 1015.54 1015.74 1015.91 1016.06 1016.23 1016.46 1016.76
1010.85 1010.87 1010.99 1011.15 1011.27 1011.30 1011.21 1011.01 1010.74 1010.45 1010.19 1010.01 1009.93 1009.94 1010.04 1010.19 1010.36 1010.54 1010.74 1010.96 1011.23 1011.56 1011.95 1012.36 1012.79 1013.18 1013.51 1013.76 1013.94 1014.07 1014.18 1014.31 1014.48 1014.70 1014.95 1015.21 1015.46 1015.67 1015.85 1016.02 1016.19 1016.40 1016.68
1011.08 1011.17 1011.31 1011.43 1011.49 1011.43 1011.25 1010.97 1010.65 1010.33 1010.07 1009.91 1009.85 1009.89 1010.00 1010.14 1010.29 1010.45 1010.63 1010.84 1011.10 1011.44 1011.83 1012.27 1012.71 1013.11 1013.44 1013.69 1013.85 1013.96 1014.05 1014.16 1014.31 1014.51 1014.76 1015.03 1015.29 1015.53 1015.74 1015.93 1016.11 1016.32 1016.57
1011.15 1011.28 1011.43 1011.52 1011.51 1011.38 1011.13 1010.81 1010.46 1010.15 1009.92 1009.80 1009.78 1009.85 1009.96 1010.08 1010.21 1010.33 1010.46 1010.64 1010.88 1011.20 1011.60 1012.04 1012.50 1012.92 1013.27 1013.52 1013.68 1013.78 1013.85 1013.93 1014.06 1014.24 1014.49 1014.76 1015.05 1015.33 1015.58 1015.80 1016.00 1016.21 1016.44
1011.06 1011.23 1011.38 1011.44 1011.38 1011.20 1010.91 1010.57 1010.24 1009.96 1009.77 1009.70 1009.72 1009.80 1009.91 1010.01 1010.09 1010.16 1010.24 1010.36 1010.57 1010.87 1011.26 1011.72 1012.19 1012.64 1013.01 1013.28 1013.46 1013.56 1013.62 1013.68 1013.78 1013.95 1014.18 1014.46 1014.76 1015.07 1015.36 1015.63 1015.86 1016.08 1016.30
1010.87 1011.06 1011.21 1011.24 1011.15 1010.94 1010.65 1010.32 1010.02 1009.79 1009.66 1009.64 1009.69 1009.77 1009.86 1009.92 1009.95 1009.95 1009.97 1010.04 1010.21 1010.49 1010.87 1011.34 1011.84 1012.31 1012.72 1013.03 1013.24 1013.35 1013.41 1013.46 1013.54 1013.68 1013.89 1014.16 1014.47 1014.80 1015.13 1015.43 1015.71 1015.95 1016.16
1010.64 1010.84 1010.96 1010.98 1010.87 1010.66 1010.38 1010.09 1009.85 1009.67 1009.60 1009.60 1009.66 1009.74 1009.80 1009.81 1009.78 1009.73 1009.69 1009.72 1009.85 1010.11 1010.49 1010.96 1011.48 1012.00 1012.45 1012.80 1013.04 1013.19 1013.27 1013.31 1013.37 1013.48 1013.65 1013.90 1014.20 1014.54 1014.89 1015.23 1015.54 1015.81 1016.04
1010.43 1010.60 1010.70 1010.69 1010.57 1010.38 1010.14 1009.91 1009.71 1009.59 1009.55 1009.57 1009.63 1009.68 1009.69 1009.66 1009.58 1009.49 1009.42 1009.42 1009.54 1009.78 1010.16 1010.63 1011.17 1011.71 1012.20 1012.60 1012.90 1013.08 1013.19 1013.24 1013.29 1013.37 1013.51 1013.71 1013.98 1014.30 1014.65 1015.00 1015.34 1015.63 1015.88
1010.25 1010.37 1010.41 1010.38 1010.27 1010.10 1009.91 1009.73 1009.60 1009.52 1009.49 1009.51 1009.54 1009.55 1009.52 1009.45 1009.34 1009.23 1009.16 1009.16 1009.27 1009.51 1009.88 1010.36 1010.90 1011.46 1011.98 1012.43 1012.77 1013.01 1013.15 1013.23 1013.28 1013.34 1013.43 1013.59 1013.80 1014.08 1014.40 1014.74 1015.08 1015.39 1015.66
1010.08 1010.11 1010.10 1010.04 1009.93 1009.80 1009.66 1009.54 1009.45 1009.40 1009.38 1009.37 1009.36 1009.32 1009.26 1009.16 1009.05 1008.95 1008.89 1008.91 1009.04 1009.28 1009.65 1010.11 1010.65 1011.20 1011.75 1012.23 1012.62 1012.92 1013.12 1013.23 1013.30 1013.35 1013.40 1013.50 1013.65 1013.86 1014.12 1014.43 1014.74 1015.05 1015.33
1009.89 1009.82 1009.74 1009.64 1009.55 1009.45 1009.37 1009.30 1009.25 1009.22 1009.18 1009.14 1009.08 1009.00 1008.90 1008.80 1008.70 1008.62 1008.61 1008.66 1008.81 1009.06 1009.42 1009.86 1010.37 1010.91 1011.45 1011.96 1012.41 1012.77 1013.03 1013.21 1013.31 1013.36 1013.39 1013.43 1013.50 1013.63 1013.81 1014.05 1014.31 1014.60 1014.86
1009.65 1009.48 1009.32 1009.19 1009.11 1009.05 1009.02 1009.01 1008.99 1008.96 1008.90 1008.82 1008.71 1008.59 1008.47 1008.37 1008.29 1008.26 1008.29 1008.39 1008.56 1008.82 1009.15 1009.56 1010.03 1010.55 1011.08 1011.61 1012.10 1012.52 1012.86 1013.11 1013.26 1013.33 1013.35 1013.34 1013.34 1013.38 1013.47 1013.62 1013.81 1014.04 1014.28
1009.35 1009.07 1008.85 1008.70 1008.63 1008.61 1008.63 1008.66 1008.68 1008.65 1008.57 1008.45 1008.30 1008.14 1008.00 1007.90 1007.85 1007.86 1007.94 1008.08 1008.27 1008.52 1008.83 1009.20 1009.62 1010.10 1010.62 1011.17 1011.70 1012.19 1012.62 1012.94 1013.16 1013.27 1013.29 1013.25 1013.18 1013.13 1013.12 1013.17 1013.28 1013.45 1013.64
1008.99 1008.64 1008.37 1008.21 1008.15 1008.17 1008.24 1008.31 1008.34 1008.32 1008.22 1008.07 1007.89 1007.70 1007.54 1007.44 1007.42 1007.46 1007.57 1007.73 1007.93 1008.17 1008.45 1008.77 1009.15 1009.60 1010.11 1010.67 1011.24 1011.81 1012.31 1012.72 1013.01 1013.16 1013.20 1013.15 1013.04 1012.91 1012.82 1012.77 1012.80 1012.89 1013.03
1008.63 1008.22 1007.93 1007.76 1007.71 1007.75 1007.85 1007.95 1008.00 1007.99 1007.88 1007.72 1007.51 1007.30 1007.13 1007.03 1007.01 1007.07 1007.19 1007.36 1007.55 1007.77 1008.02 1008.31 1008.65 1009.07 1009.58 1010.15 1010.77 1011.40 1011.97 1012.46 1012.82 1013.03 1013.10 1013.05 1012.92 1012.75 1012.59 1012.48 1012.43 1012.46 1012.55
1008.29 1007.86 1007.54 1007.36 1007.31 1007.36 1007.47 1007.59 1007.66 1007.65 1007.55 1007.38 1007.17 1006.96 1006.79 1006.68 1006.65 1006.70 1006.82 1006.97 1007.15 1007.35 1007.57 1007.83 1008.15 1008.57 1009.08 1009.67 1010.33 1011.00 1011.64 1012.19 1012.61 1012.88 1012.99 1012.96 1012.84 1012.67 1012.49 1012.34 1012.25 1012.23 1012.29
1007.99 1007.54 1007.20 1007.00 1006.93 1006.97 1007.07 1007.18 1007.26 1007.26 1007.18 1007.03 1006.84 1006.64 1006.48 1006.37 1006.33 1006.37 1006.45 1006.58 1006.73 1006.90 1007.10 1007.36 1007.68 1008.10 1008.63 1009.25 1009.93 1010.64 1011.32 1011.91 1012.38 1012.69 1012.85 1012.87 1012.79 1012.65 1012.50 1012.36 1012.27 1012.25 1012.28
1007.72 1007.26 1006.89 1006.64 1006.51 1006.50 1006.56 1006.65 1006.73 1006.75 1006.71 1006.60 1006.46 1006.30 1006.16 1006.06 1006.02 1006.03 1006.09 1006.18 1006.30 1006.45 1006.65 1006.90 1007.24 1007.68 1008.23 1008.86 1009.57 1010.29 1010.99 1011.60 1012.10 1012.45 1012.66 1012.75 1012.75 1012.68 1012.60 1012.53 1012.49 1012.48 1012.53
Thickness
5802 5804 5803 5801 5798 5797 5794 5792 5789 5787 5785 5782 5780 5777 5775 5772 5769 5766 5764 5761 5759 5757 5755 5753 5751 5749 5747 5746 5744 5743 5741 5740 5739 5738 5737 5736 5735 5735 5735 5735 5734 5734 5734
5808 5805 5803 5800 5797 5795 5792 5790 5787 5784 5782 5779 5777 5774 5772 5769 5767 5764 5761 5759 5757 5754 5752 5751 5749 5747 5745 5744 5742 5741 5739 5738 5737 5737 5736 5734 5734 5733 5734 5734 5733 5733 5732
5808 5806 5802 5799 5795 5792 5790 5787 5784 5782 5779 5777 5774 5772 5769 5767 5764 5761 5759 5756 5754 5752 5750 5748 5746 5745 5743 5741 5740 5739 5737 5736 5735 5735 5733 5733 5732 5732 5732 5732 5731 5731 5730
5807 5804 5800 5797 5794 5790 5787 5784 5782 5779 5776 5774 5771 5769 5767 5764 5762 5759 5757 5754 5752 5750 5748 5746 5744 5743 5741 5739 5738 5736 5735 5734 5733 5732 5731 5731 5731 5730 5730 5730 5729 5729 5728
5805 5801 5798 5795 5792 5788 5785 5782 5779 5776 5773 5771 5768 5766 5764 5761 5759 5757 5755 5752 5750 5748 5746 5744 5742 5740 5739 5737 5735 5734 5733 5733 5732 5730 5729 5729 5728 5728 5728 5728 5728 5727 5726
5801 5798 5796 5793 5789 5786 5783 5779 5776 5773 5770 5767 5765 5762 5760 5758 5756 5754 5752 5750 5748 5746 5744 5742 5740 5738 5737 5735 5733 5732 5731 5730 5730 5728 5727 5727 5727 5727 5727 5727 5726 5725 5724
5797 5795 5792 5789 5786 5783 5780 5777 5773 5770 5767 5764 5761 5759 5756 5754 5752 5750 5748 5747 5745 5743 5742 5740 5738 5736 5735 5733 5731 5730 5729 5728 5728 5727 5726 5725 5725 5725 5725 5725 5724 5722 5722
5794 5790 5787 5784 5782 5779 5776 5774 5771 5767 5764 5761 5758 5756 5753 5751 5749 5747 5745 5743 5742 5741 5739 5737 5736 5734 5732 5730 5729 5728 5727 5726 5725 5725 5724 5723 5723 5723 5722 5722 5721 5720 5719
5790 5786 5782 5779 5777 5776 5773 5770 5767 5764 5761 5758 5755 5753 5750 5748 5746 5744 5742 5740 5739 5738 5737 5735 5733 5732 5730 5729 5727 5726 5725 5723 5723 5722 5722 5721 5721 5720 5720 5720 5719 5718 5717
5784 5782 5779 5776 5773 5771 5769 5766 5763 5760 5757 5755 5752 5749 5747 5745 5743 5741 5739 5737 5736 5735 5734 5732 5731 5729 5728 5726 5725 5723 5722 5721 5720 5719 5719 5719 5718 5718 5717 5717 5716 5715 5714
5776 5775 5775 5772 5770 5768 5766 5764 5760 5757 5754 5752 5749 5746 5744 5742 5739 5737 5736 5734 5733 5732 5730 5729 5728 5727 5726 5724 5722 5721 5720 5719 5717 5717 5716 5717 5716 5715 5715 5714 5713 5713 5712
5768 5768 5769 5768 5766 5764 5762 5760 5757 5754 5751 5748 5745 5742 5740 5738 5736 5734 5732 5731 5730 5728 5727 5726 5725 5724 5722 5721 5720 5719 5718 5716 5715 5714 5714 5715 5714 5713 5712 5712 5711 5710 5709
5766 5764 5765 5764 5762 5759 5758 5755 5753 5751 5748 5746 5742 5739 5736 5734 5732 5730 5728 5727 5726 5724 5723 5722 5721 5720 5719 5718 5717 5716 5715 5714 5712 5712 5712 5712 5712 5711 5710 5709 5709 5708 5706
5763 5761 5760 5760 5758 5756 5754 5751 5748 5746 5742 5740 5738 5735 5732 5729 5728 5726 5724 5723 5721 5720 5719 5717 5717 5716 5715 5714 5714 5713 5712 5711 5710 5710 5709 5710 5709 5709 5709 5708 5707 5706 5704
5759 5757 5755 5755 5752 5750 5748 5746 5742 5740 5737 5734 5733 5731 5728 5725 5723 5721 5720 5719 5717 5716 5714 5713 5712 5711 5710 5710 5709 5709 5709 5708 5708 5708 5707 5707 5707 5707 5707 5706 5705 5704 5703
5755 5753 5752 5749 5747 5745 5741 5739 5736 5734 5732 5730 5727 5725 5723 5721 5718 5716 5714 5713 5713 5712 5710 5709 5708 5707 5706 5705 5705 5705 5706 5705 5705 5704 5704 5704 5704 5704 5704 5703 5704 5703 5701
5751 5749 5747 5744 5741 5738 5735 5733 5730 5728 5726 5722 5720 5719 5717 5715 5712 5711 5709 5707 5708 5707 5706 5705 5704 5702 5701 5701 5700 5701 5702 5702 5701 5701 5701 5701 5700 5700 5700 5700 5701 5700 5699
5746 5742 5740 5739 5735 5732 5729 5727 5724 5722 5719 5717 5715 5713 5710 5708 5706 5706 5704 5702 5703 5702 5700 5699 5698 5696 5695 5695 5695 5696 5697 5698 5698 5698 5697 5697 5697 5697 5697 5697 5697 5697 5697
5741 5737 5734 5732 5729 5726 5724 5721 5718 5716 5713 5712 5710 5708 5705 5703 5701 5700 5698 5697 5697 5697 5695 5694 5693 5692 5690 5690 5691 5692 5692 5693 5694 5694 5693 5693 5693 5693 5692 5692 5693 5693 5693
5736 5732 5728 5726 5723 5720 5717 5714 5711 5709 5706 5705 5702 5701 5700 5698 5697 5695 5693 5692 5692 5691 5690 5688 5688 5688 5687 5686 5687 5687 5687 5688 5689 5689 5689 5689 5689 5689 5688 5688 5689 5689 5689
5729 5725 5723 5720 5717 5714 5710 5705 5702 5700 5699 5698 5696 5695 5694 5691 5691 5690 5688 5687 5687 5686 5685 5684 5683 5682 5682 5682 5679 5678 5680 5683 5683 5684 5685 5685 5685 5685 5685 5685 5685 5685 5685
5720 5718 5716 5713 5711 5708 5704 5701 5697 5695 5693 5692 5690 5689 5688 5687 5686 5686 5684 5682 5681 5680 5679 5679 5678 5677 5677 5676 5672 5668 5667 5670 5675 5679 5679 5679 5679 5680 5680 5681 5681 5681 5681
5714 5711 5710 5707 5705 5702 5699 5695 5691 5687 5686 5684 5683 5683 5683 5683 5682 5682 5681 5679 5677 5676 5675 5674 5674 5672 5670 5670 5669 5664 5659 5658 5662 5668 5671 5672 5672 5673 5674 5675 5676 5676 5676
5707 5706 5703 5701 5698 5696 5693 5688 5684 5680 5677 5677 5677 5677 5678 5678 5678 5677 5676 5675 5672 5672 5671 5671 5670 5668 5666 5664 5664 5664 5662 5660 5655 5656 5661 5664 5665 5666 5667 5668 5669 5670 5670
5702 5700 5697 5694 5691 5688 5685 5682 5678 5675 5672 5671 5670 5670 5671 5671 5672 5672 5671 5670 5668 5667 5667 5667 5666 5664 5663 5661 5659 5658 5656 5654 5653 5650 5650 5654 5656 5659 5660 5661 5662 5663 5664
5697 5693 5690 5686 5683 5681 5678 5675 5672 5669 5666 5664 5663 5662 5663 5664 5665 5666 5665 5664 5663 5663 5663 5662 5661 5660 5659 5658 5656 5655 5652 5649 5647 5646 5644 5645 5646 5650 5652 5654 5654 5655 5656